STARLINK-30998, 58513

Orbit data source: Space-Track

STARLINK-30998, 58513 is a payload satellite owned by SpaceX/Seattle (US) in LEO that was launched on Thu, 07 Dec 2023 UTC via an FALCON 9 launch vehicle from the Air Force Eastern Test Range (AFETR). Payload-class satellites include a variety of spacecraft equipped with specific instruments for various scientific and technological missions. These include communications satellites like Starlink; space stations such as the ISS; scientific satellites like the Hubble; Earth observation satellites from companies like Planet Labs, Umbra, and HawkEye 360; GPS; miniature CubeSats for education and research; and military/defense satellites.

Loading next visibility...
Identifier
58513, 2023-191F
Orbit
LEO
Country
Flag of USUS
Related business
Manufacturer
SpaceX/Seattle
Mission
Operational Commercial Communications
Bus & Motor
STARLINK V2M, Unknown motor
Mass
730 kg wet, ~700 kg dry
Launch date (UTC)
2023-12-07 (3 years ago)
Launch vehicle
FALCON 9
Launch site
Air Force Eastern Test Range (AFETR)
Object type
Payload
Rocket body
Debris
Shape & HBR
Box + 2 Pan, 17.7 m
Radar Cross Section
33.884 m², Large (>1 m²)

Expand to show TLE details & history
Last TLE update: 2 days ago

TLE from 2 days ago
0 STARLINK-30998
1 58513U 23191F   26171.26116948  .00000306  00000-0  20648-4 0  9995
2 58513  43.0016 244.5703 0001294 267.3660  92.7043 15.27578345141186
Epoch: 2026-06-20T06:16Z
TLE epoch observation values (Epoch: 2026-06-20T06:16:05.043Z)
Latitude
-0.00004°
Longitude
-117.92909°
Altitude
482.872 km
Speed
7.626 km/s
True Right ascension
16h 18m 16s
True Declination
0° 00' 00"
Sunlit
Object was in full shadow at epoch
Visualization orbit readout
Latitude
Unknown
Longitude
Unknown
Altitude
Unknown
Speed
Unknown
Apparent Right ascension
Unknown
Apparent Declination
Unknown
Sunlit
N/A
Visualization observer readout
Local Sidereal Time
21:43:15
Azimuth
Unknown
Elevation
Unknown
Doppler factor
Unknown
Orbital elements
Apogee altitude
485.887 km
Perigee altitude
484.111 km
Semi-major axis
6,863.136 km
Eccentricity
0.00013
Inclination
43.0016°
RAAN
244.5703°
Arg. of periapsis
267.366°
True anomaly
92.71911°
Mean anomaly
92.7043°
Eccentric anomaly
92.71171°
Mean motion
3.81733 °/min
Orbital period
94.31 mins
BSTAR
0.000020648
Loading maneuver chart data...
Computing Atmospheric mass density...
Loading historical data...
Loading historical data...
Loading historical data...
Loading historical data...
Loading historical data...
Loading historical data...
Loading historical data...

Documentation

Showing up to 5 results
|